Change the Weather History Date:

Thursday, December 16, 1999

  Actual Average Record
Temperature  
Mean Temperature 32 °F -  
Max Temperature 37 °F 45 °F 67 °F (1971)
Min Temperature 28 °F 26 °F 2 °F (1989)
Degree Days  
Heating Degree Days 32    
Moisture  
Dew Point 16 °F    
Average Humidity 53    
Maximum Humidity 75    
Minimum Humidity 30    
Precipitation  
Precipitation 0.00 in - - ()
Sea Level Pressure  
Sea Level Pressure 30.00 in    
Wind  
Wind Speed 17 mph (WSW)    
Max Wind Speed 32 mph    
Max Gust Speed 52 mph    
Visibility 10 miles    
Events      
Averages and records for this station are not official NWS values.
T = Trace of Precipitation, MM = Missing Value Source: NWS Daily Summary

Daily Weather History Graph

Daily Weather History Graph

Search for Another Location

Airport or City:

Trip Planner

Search our weather history database for the weather conditions in past years. The results will help you decide how hot, cold, wet, or windy it might be!

Date:

Astronomy

Dec. 16, 1999 Rise Set
Actual Time 7:30 AM EST 5:11 PM EST
Civil Twilight 7:01 AM EST 5:40 PM EST
Nautical Twilight 6:29 AM EST 6:12 PM EST
Astronomical Twilight 5:58 AM EST 6:44 PM EST
Moon 1:13 PM EST (12/16) 12:23 AM EST (12/16)
Length of Visible Light 10h 38m
Length of Day
9h 41m
First Quarter, 57% of the Moon is Illuminated
Dec 16
First Quarter
Dec 22
Full
Dec 29
Last Quarter
Jan 6
New
Jan 14
First Quarter

Hourly Weather History & Observations

Time (EST) Temp. Windchill Dew Point Humidity Pressure Visibility Wind Dir Wind Speed Gust Speed Precip Events Conditions
12:03 AM 32.0 °F 20.8 °F 23.0 °F 69% 29.96 in 10.0 mi West 17.3 mph 34.5 mph N/A   Clear
12:23 AM 32.0 °F 21.2 °F 23.0 °F 69% 29.96 in 10.0 mi WSW 16.1 mph 33.4 mph N/A   Clear
12:43 AM 32.0 °F 24.2 °F 23.0 °F 69% 29.96 in 10.0 mi West 9.2 mph 24.2 mph N/A   Scattered Clouds
1:03 AM 32.0 °F 22.1 °F 23.0 °F 69% 29.95 in 10.0 mi WSW 13.8 mph 39.1 mph N/A   Scattered Clouds
1:23 AM 32.0 °F 19.2 °F 23.0 °F 69% 29.94 in 10.0 mi West 23.0 mph 31.1 mph N/A   Clear
1:43 AM 32.0 °F 21.6 °F 24.8 °F 75% 29.94 in 10.0 mi West 15.0 mph 35.7 mph N/A   Clear
2:03 AM 32.0 °F 19.8 °F 24.8 °F 75% 29.94 in 10.0 mi West 20.7 mph 28.8 mph N/A   Scattered Clouds
2:23 AM 32.0 °F 20.8 °F 24.8 °F 75% 29.94 in 10.0 mi West 17.3 mph 35.7 mph N/A   Mostly Cloudy
2:43 AM 32.0 °F 18.6 °F 23.0 °F 69% 29.94 in 10.0 mi West 25.3 mph 34.5 mph N/A   Mostly Cloudy
3:03 AM 32.0 °F 24.8 °F 24.8 °F 75% 29.95 in 10.0 mi West 8.1 mph 25.3 mph N/A   Overcast
3:23 AM 32.0 °F 24.8 °F 23.0 °F 69% 29.94 in 10.0 mi West 8.1 mph 24.2 mph N/A   Overcast
3:43 AM 32.0 °F 24.8 °F 23.0 °F 69% 29.95 in 10.0 mi SW 8.1 mph 24.2 mph N/A   Overcast
4:03 AM 32.0 °F 23.6 °F 21.2 °F 64% 29.93 in 10.0 mi West 10.4 mph 33.4 mph N/A   Mostly Cloudy
4:23 AM 32.0 °F 19.2 °F 19.4 °F 60% 29.91 in 10.0 mi West 23.0 mph 39.1 mph N/A   Scattered Clouds
4:43 AM 32.0 °F 18.9 °F 19.4 °F 60% 29.91 in 10.0 mi West 24.2 mph 42.6 mph N/A   Clear
5:03 AM 32.0 °F 18.9 °F 19.4 °F 60% 29.92 in 10.0 mi West 24.2 mph 44.9 mph N/A   Clear
5:23 AM 32.0 °F 18.6 °F 19.4 °F 60% 29.93 in 10.0 mi West 25.3 mph 36.8 mph N/A   Clear
5:43 AM 30.2 °F 15.7 °F 19.4 °F 64% 29.93 in 10.0 mi West 27.6 mph 46.0 mph N/A   Clear
6:03 AM 30.2 °F 16.8 °F 17.6 °F 60% 29.95 in 10.0 mi West 23.0 mph 43.7 mph N/A   Clear
6:23 AM 30.2 °F 17.4 °F 17.6 °F 60% 29.95 in 10.0 mi West 20.7 mph 47.2 mph N/A   Clear
6:43 AM 30.2 °F 15.9 °F 17.6 °F 60% 29.94 in 10.0 mi West 26.5 mph 51.8 mph N/A   Clear
7:03 AM 28.4 °F 13.5 °F 17.6 °F 64% 29.94 in 10.0 mi West 26.5 mph 42.6 mph N/A   Clear
7:23 AM 28.4 °F 12.3 °F 15.8 °F 59% 29.95 in 10.0 mi WSW 32.2 mph 42.6 mph N/A   Clear
7:43 AM 28.4 °F 13.5 °F 15.8 °F 59% 29.97 in 10.0 mi West 26.5 mph 38.0 mph N/A   Clear
8:03 AM 28.4 °F 14.1 °F 15.8 °F 59% 29.98 in 10.0 mi WSW 24.2 mph 36.8 mph N/A   Clear
8:23 AM 28.4 °F 15.8 °F 15.8 °F 59% 29.99 in 10.0 mi WSW 18.4 mph 41.4 mph N/A   Clear
8:43 AM 30.2 °F 18.1 °F 15.8 °F 55% 30.00 in 10.0 mi WSW 18.4 mph 34.5 mph N/A   Clear
9:03 AM 30.2 °F 18.1 °F 15.8 °F 55% 30.01 in 10.0 mi West 18.4 mph 36.8 mph N/A   Clear
9:23 AM 30.2 °F 18.1 °F 15.8 °F 55% 30.03 in 10.0 mi WSW 18.4 mph 32.2 mph N/A   Clear
9:43 AM 32.0 °F 20.1 °F 15.8 °F 51% 30.04 in 10.0 mi West 19.6 mph 31.1 mph N/A   Clear
10:03 AM 32.0 °F 20.5 °F 14.0 °F 48% 30.04 in 10.0 mi West 18.4 mph 28.8 mph N/A   Clear
10:23 AM 32.0 °F 20.1 °F 14.0 °F 48% 30.05 in 10.0 mi WSW 19.6 mph 29.9 mph N/A   Clear
10:43 AM 32.0 °F 21.6 °F 12.2 °F 44% 30.05 in 10.0 mi WSW 15.0 mph 26.5 mph N/A   Clear
11:03 AM 32.0 °F 20.8 °F 12.2 °F 44% 30.05 in 10.0 mi WSW 17.3 mph 20.7 mph N/A   Clear
11:24 AM 32.0 °F 20.5 °F 10.4 °F 41% 30.04 in 10.0 mi West 18.4 mph 32.2 mph N/A   Clear
11:43 AM 32.0 °F 21.2 °F 8.6 °F 38% 30.03 in 10.0 mi West 16.1 mph 24.2 mph N/A   Clear
12:04 PM 35.6 °F 26.2 °F 8.6 °F 33% 30.03 in 10.0 mi West 15.0 mph 25.3 mph N/A   Clear
12:24 PM 35.6 °F 25.5 °F 8.6 °F 33% 30.03 in 10.0 mi SW 17.3 mph 26.5 mph N/A   Clear
12:44 PM 35.6 °F 24.0 °F 6.8 °F 30% 30.02 in 10.0 mi West 23.0 mph 29.9 mph N/A   Clear
1:04 PM 35.6 °F 26.6 °F 8.6 °F 33% 30.02 in 10.0 mi West 13.8 mph 40.3 mph N/A   Clear
1:24 PM 37.4 °F 28.2 °F 10.4 °F 33% 30.01 in 10.0 mi WSW 16.1 mph 24.2 mph N/A   Clear
1:44 PM 37.4 °F 28.5 °F 12.2 °F 36% 30.01 in 10.0 mi SW 15.0 mph 27.6 mph N/A   Clear
2:04 PM 37.4 °F 28.9 °F 12.2 °F 36% 30.01 in 10.0 mi SW 13.8 mph 25.3 mph N/A   Clear
2:24 PM 37.4 °F 28.2 °F 12.2 °F 36% 30.02 in 10.0 mi WSW 16.1 mph 26.5 mph N/A   Clear
2:44 PM 37.4 °F 28.2 °F 10.4 °F 33% 30.01 in 10.0 mi SW 16.1 mph 27.6 mph N/A   Clear
3:04 PM 37.4 °F 29.3 °F 12.2 °F 36% 30.02 in 10.0 mi SW 12.7 mph 27.6 mph N/A   Clear
3:24 PM 37.4 °F 28.5 °F 12.2 °F 36% 30.02 in 10.0 mi SW 15.0 mph 24.2 mph N/A   Clear
3:44 PM 35.6 °F 26.2 °F 12.2 °F 38% 30.04 in 10.0 mi WSW 15.0 mph 28.8 mph N/A   Clear
4:04 PM 35.6 °F 26.2 °F 12.2 °F 38% 30.03 in 10.0 mi WNW 15.0 mph 28.8 mph N/A   Clear
4:24 PM 35.6 °F 30.7 °F 12.2 °F 38% 30.03 in 10.0 mi West 5.8 mph 24.2 mph N/A   Clear
4:44 PM 35.6 °F 25.2 °F 14.0 °F 41% 30.04 in 10.0 mi West 18.4 mph 34.5 mph N/A   Clear
5:04 PM 33.8 °F 22.2 °F 14.0 °F 44% 30.03 in 10.0 mi West 20.7 mph 28.8 mph N/A   Clear
5:24 PM 32.0 °F 21.6 °F 14.0 °F 48% 30.04 in 10.0 mi West 15.0 mph 28.8 mph N/A   Clear
5:44 PM 32.0 °F 22.5 °F 14.0 °F 48% 30.05 in 10.0 mi WSW 12.7 mph 25.3 mph N/A   Clear
6:04 PM 32.0 °F 21.6 °F 14.0 °F 48% 30.05 in 10.0 mi West 15.0 mph 31.1 mph N/A   Clear
6:24 PM 32.0 °F 23.0 °F 14.0 °F 48% 30.06 in 10.0 mi West 11.5 mph 27.6 mph N/A   Clear
6:44 PM 32.0 °F 28.7 °F 15.8 °F 51% 30.08 in 10.0 mi WSW 3.5 mph - N/A   Clear
7:04 PM 32.0 °F 24.2 °F 15.8 °F 51% 30.09 in 10.0 mi WSW 9.2 mph - N/A   Clear
7:24 PM 32.0 °F 21.2 °F 17.6 °F 55% 30.09 in 10.0 mi West 16.1 mph 21.9 mph N/A   Clear
7:44 PM 32.0 °F 21.6 °F 17.6 °F 55% 30.08 in 10.0 mi West 15.0 mph 23.0 mph N/A   Clear
8:04 PM 32.0 °F 20.8 °F 17.6 °F 55% 30.09 in 10.0 mi West 17.3 mph 20.7 mph N/A   Clear
8:24 PM 32.0 °F 22.1 °F 17.6 °F 55% 30.09 in 10.0 mi West 13.8 mph 26.5 mph N/A   Clear
8:44 PM 32.0 °F 22.5 °F 17.6 °F 55% 30.08 in 10.0 mi West 12.7 mph 23.0 mph N/A   Clear
9:04 PM 32.0 °F 22.5 °F 19.4 °F 60% 30.09 in 10.0 mi West 12.7 mph 19.6 mph N/A   Clear
9:24 PM 32.0 °F 25.6 °F 19.4 °F 60% 30.08 in 10.0 mi WNW 6.9 mph - N/A   Clear
9:44 PM 32.0 °F 25.6 °F 19.4 °F 60% 30.11 in 10.0 mi WSW 6.9 mph - N/A   Clear
10:04 PM 32.0 °F 27.5 °F 19.4 °F 60% 30.11 in 10.0 mi SW 4.6 mph - N/A   Clear
10:23 PM 32.0 °F 24.8 °F 19.4 °F 60% 30.11 in 10.0 mi West 8.1 mph - N/A   Clear
10:43 PM 32.0 °F 24.8 °F 17.6 °F 55% 30.11 in 10.0 mi West 8.1 mph - N/A   Clear
11:03 PM 32.0 °F 23.6 °F 19.4 °F 60% 30.11 in 10.0 mi West 10.4 mph - N/A   Clear
11:23 PM 32.0 °F 24.8 °F 19.4 °F 60% 30.12 in 10.0 mi West 8.1 mph - N/A   Clear
11:43 PM 32.0 °F 23.6 °F 19.4 °F 60% 30.12 in 10.0 mi WSW 10.4 mph - N/A   Clear